{"data":{"norad_id":49098,"intl_designator":"2021-075Z","name":"ONEWEB-0312","alt_names":[],"object_type":"PAYLOAD","status":"ACTIVE","operator":null,"country":"UK","launch_date":"2021-08-21","launch_site_code":"TYMSC","launch_vehicle":null,"mission":null,"orbit_class":"UNKNOWN","rcs_meters":null,"size_class":null,"mass_kg":null,"dimensions":null,"purposes":["comms"],"wikipedia_slug":null,"has_3d_model":false,"image_url":null,"decayed_at":null,"tle_current":{"epoch":"2026-05-25T02:27:19.567584Z","epoch_age_seconds":65965,"freshness":"FRESH","line1":"1 49098U 21075Z   26145.10230981  .00000041  00000+0  71147-4 0  9995","line2":"2 49098  87.9153  10.4646 0001856  94.7830 265.3513 13.17649549230567","mean_motion":13.17649549,"eccentricity":0.0001856,"inclination_deg":87.9153,"raan_deg":10.4646,"arg_perigee_deg":94.783,"mean_anomaly_deg":265.3513,"bstar":7.1147e-5,"rev_number":23056,"period_min":109.28550775074,"perigee_km":1192.305821633,"apogee_km":1195.1164916688,"semimajor_km":7571.8481566509,"source":"CELESTRAK","updated_at":"2026-05-25T13:38:22.485868Z"}}}